Regional Weather Roundup
Issued by NWS Cleveland, OH

Home | Current Version | Previous Version | Graphics & Text | Print | Product List | Glossary On
Versions: 1 2 3 4 5 6 7 8 9 10 11 12 13 14 15 16 17 18 19 20 21 22 23 24 25 26 27 28 29 30 31 32 33 34 35 36 37 38 39 40 41 42 43 44 45 46 47 48 49 50
000
ASUS41 KCLE 211002
RWRCLE
OHIO REGIONAL WEATHER ROUNDUP
NATIONAL WEATHER SERVICE CLEVELAND, OH
600 AM EDT SUN SEP 21 2014

NOTE: "FAIR" INDICATES FEW OR NO CLOUDS BELOW 12,000 FEET WITH NO
SIGNIFICANT WEATHER AND/OR OBSTRUCTIONS TO VISIBILITY.

OHZ001>008-015>018-024>027-034-035-043-044-211100-
   NORTHWEST OHIO

CITY           SKY/WX    TMP DP  RH WIND       PRES   REMARKS
DEFIANCE       PTCLDY   N/A N/A N/A W8G16     29.68F
FINDLAY        CLOUDY    70  66  87 SW16G23   29.70S
TOLEDO EXPRESS MOCLDY    67  66  97 SW14G21   29.63F
TOLEDO EXEC    NOT AVBL
LIMA           CLOUDY    70  67  90 SW15      29.74R
$$

OHZ009>014-019>023-028>033-038-089-211100-
   NORTHEAST OHIO

CITY           SKY/WX    TMP DP  RH WIND       PRES   REMARKS
CLE-HOPKINS    MOCLDY    67  64  90 S12       29.71F
CLE-LAKEFRONT  MOCLDY    69  64  84 S15       29.67F
CUY CO. ARPT   NOT AVBL
LORAIN-ELYRIA  CLOUDY    72  67  84 SW18G24   29.70F
ASHTABULA      NOT AVBL
AKRON-CANTON   LGT RAIN  70  62  76 SW16G26   29.75F
WOOSTER        CLOUDY    68  63  84 S10       29.75F
MANSFIELD      CLOUDY    69  65  86 SW13      29.75S
YOUNGSTOWN     MOCLDY    67  62  84 S12       29.75F
$$

OHZ042-051>053-060>062-070>072-077>081-211100-
  SOUTHWEST OHIO

CITY           SKY/WX    TMP DP  RH WIND       PRES   REMARKS
CINC-COVINGTON MOCLDY    70  65  84 SW7       29.84S
CINC-LUNKEN    MOCLDY    71  65  81 SW9       29.82F
HAMILTON       MOCLDY    71  66  84 W6        29.82S
DAYTON         CLOUDY    71  66  84 SW14      29.80S
WRIGHT-PAT AFB MOCLDY    71  65  82 SW14      29.79S
DAYTON GENERAL CLOUDY    71  65  81 SW14      29.80F
WILMINGTON     MOCLDY    67  63  87 SW12      29.82S
$$

OHZ036-037-039>041-045>050-054>059-063>069-073>076-082>088-211100-
  CENTRAL AND SOUTHEAST OHIO

CITY           SKY/WX    TMP DP  RH WIND       PRES   REMARKS
COLUMBUS       CLOUDY    71  63  75 S8        29.78F
OSU AIRPORT    CLOUDY    69  64  84 SW10      29.77F
BOLTON FIELD   CLOUDY    68  65  89 SW12G17   29.79F
RICKENBACK AFB CLOUDY    68  63  85 S10       29.78F
NEWARK         PTCLDY    69  63  81 SW8       29.79F
MARION         CLOUDY    71  65  81 SW16      29.74F
LANCASTER      CLOUDY    69  63  81 S8        29.80F
ZANESVILLE     PTCLDY    68  62  81 S9        29.81F
NEW PHILLY     NOT AVBL
$$



USA.gov is the U.S. government's official web portal to all federal, state and local government web resources and services.